Vorticity
nan nan nan nan nan nan nan nan nan nan nan nan nan nan nan nan nan nan nan nan nan nan nan nan nan nan nan nan nan nan nan nan nan nan nan nan nan nan nan nan nan nan nan nan nan nan nan nan nan nan nan nan nan nan nan nan nan nan nan nan nan nan nan nan nan nan nan nan nan
nan 8 8 9 11 9 8 7 9 9 9 9 10 9 9 9 9 9 8 8 9 8 8 7 5 5 5 5 7 7 7 7 7 8 9 9 9 10 11 10 8 8 7 8 10 12 9 10 13 12 10 8 8 8 9 10 10 9 8 11 14 17 24 27 24 19 13 6 nan
nan 7 8 10 12 11 8 8 8 8 8 9 9 9 9 9 9 9 8 8 8 9 9 7 5 6 7 8 8 6 6 6 8 9 9 7 7 9 11 10 9 9 9 9 9 10 10 12 13 11 10 8 8 9 8 8 11 11 8 9 12 12 15 19 23 23 16 13 nan
nan 7 8 9 10 9 8 8 7 8 8 9 9 9 9 9 9 9 8 8 9 9 8 6 6 7 8 8 7 7 5 6 9 10 9 7 7 8 10 11 10 10 9 9 9 9 10 13 14 10 8 7 9 10 9 8 11 13 11 8 9 9 11 12 15 20 21 19 nan
nan 9 8 9 8 8 8 8 8 8 9 9 9 9 9 9 9 9 8 8 9 7 6 6 9 8 8 7 7 8 6 5 8 10 8 7 7 7 8 10 11 11 10 9 9 10 10 13 14 10 8 9 9 7 7 9 12 14 13 10 9 9 10 11 13 15 20 20 nan
nan 10 9 8 8 7 8 9 10 9 8 8 9 9 8 8 9 9 9 9 8 6 6 9 10 9 8 7 8 9 9 7 7 7 8 8 7 6 7 8 10 11 10 9 9 11 12 13 12 9 9 10 8 5 6 10 12 12 12 12 10 10 10 11 13 14 16 23 nan
nan 9 10 9 8 7 6 7 9 8 7 7 8 8 8 8 9 9 9 8 8 8 8 9 8 8 8 8 7 7 8 9 8 7 9 9 7 7 8 8 8 9 9 10 11 11 12 13 11 8 8 10 8 5 7 11 11 10 11 12 11 10 9 11 12 11 11 23 nan
nan 9 10 10 8 7 5 5 6 6 6 7 7 8 9 9 9 8 7 7 8 8 9 8 7 7 7 8 7 6 6 8 9 8 9 8 8 9 9 8 8 8 8 9 10 11 14 14 11 8 8 9 9 6 6 9 12 11 10 11 12 11 11 10 11 10 9 15 nan
nan 9 9 9 9 8 7 7 7 7 7 7 8 9 10 9 8 7 7 8 9 8 8 7 7 7 6 6 7 7 6 7 7 8 8 8 8 9 10 9 8 9 8 8 8 10 14 15 11 9 9 8 7 7 7 10 12 11 11 10 10 10 12 11 11 11 11 10 nan
nan 8 8 8 9 9 9 9 10 10 9 8 9 9 10 9 8 8 8 9 10 9 7 7 8 8 6 6 7 7 7 7 6 6 7 8 8 9 11 9 7 9 9 9 9 10 13 13 10 10 10 7 5 6 9 12 12 12 13 10 7 8 10 11 11 11 11 10 nan
nan 7 9 9 9 10 9 9 10 11 10 10 9 9 10 10 11 9 9 10 10 8 6 7 9 8 7 7 7 7 7 7 6 6 6 7 8 9 10 9 8 9 9 10 11 11 11 10 9 9 11 10 7 6 8 11 12 12 13 11 7 7 8 9 11 11 10 9 nan
nan 8 9 10 10 9 9 8 9 10 9 9 9 10 10 10 11 10 10 10 8 7 7 8 10 9 8 7 7 7 6 6 7 7 7 7 8 9 9 9 9 9 9 11 12 12 9 8 8 9 11 13 12 8 6 9 12 11 10 10 10 8 7 8 11 12 10 10 nan
nan 8 8 10 10 9 8 8 8 9 8 7 8 9 9 10 10 10 9 9 8 7 8 10 10 9 8 8 7 6 6 6 7 7 7 7 8 8 9 9 9 10 10 11 11 11 9 7 7 9 10 13 13 10 8 9 10 10 10 10 10 9 8 9 11 12 11 11 nan
nan 9 9 9 10 8 8 7 8 9 8 6 7 8 9 10 10 10 10 8 8 8 8 10 11 10 9 8 6 5 6 6 7 7 7 8 8 8 9 8 8 10 11 10 9 9 9 8 7 8 9 11 12 12 11 10 10 10 10 10 9 9 9 9 10 11 10 10 nan
nan 9 9 9 8 8 8 8 9 10 10 9 7 8 8 9 11 11 10 8 8 8 8 9 10 10 10 8 6 6 6 5 5 6 7 7 8 8 8 8 8 9 10 10 10 9 9 8 8 8 8 9 10 11 12 11 10 10 10 10 11 10 9 10 10 10 10 9 nan
nan 9 9 9 8 7 7 7 8 11 11 10 9 8 8 9 10 11 10 8 7 7 7 7 7 8 9 9 8 7 5 4 5 6 6 7 7 7 8 8 7 8 9 10 10 10 9 9 8 8 8 8 9 10 11 11 10 9 9 10 11 11 11 11 11 10 9 9 nan
nan 9 9 10 8 7 6 5 6 8 10 10 9 8 8 9 10 11 10 8 7 7 6 5 5 6 8 9 10 9 8 7 6 6 7 6 6 7 8 8 8 8 9 10 10 9 9 10 10 9 9 9 8 8 9 10 10 9 8 8 9 10 11 12 11 10 9 9 nan
nan 9 10 10 9 8 7 6 6 7 9 10 9 8 9 9 9 9 10 10 9 8 7 6 6 7 8 8 9 11 11 11 9 8 7 7 6 7 8 8 9 9 10 10 10 9 8 9 10 11 10 9 8 8 8 9 9 8 8 7 7 8 9 11 12 12 10 9 nan
nan 10 10 9 9 9 9 8 7 8 9 9 9 9 9 10 9 8 8 10 11 10 9 7 6 6 7 7 7 9 10 12 11 10 9 8 7 8 8 9 9 9 10 10 10 9 9 8 9 10 11 11 9 8 8 8 8 7 7 7 6 7 8 9 11 12 12 10 nan
nan 9 10 10 10 10 10 10 10 9 9 9 9 9 8 9 9 9 8 9 11 12 11 8 6 5 5 5 5 5 7 9 10 11 10 9 8 8 8 8 9 9 9 10 10 10 9 9 9 10 10 10 10 9 8 8 7 7 8 6 5 5 6 8 9 10 11 11 nan
nan 10 10 11 11 11 11 11 11 10 10 10 10 9 8 8 10 10 9 10 11 13 12 11 8 5 4 4 4 4 5 7 9 9 10 10 9 8 7 8 9 9 9 10 9 10 10 10 9 9 10 10 10 9 9 8 7 7 8 8 6 5 6 6 6 7 8 9 nan
nan 11 11 12 11 11 10 10 10 10 10 10 10 9 8 8 9 9 10 11 11 11 12 12 12 9 7 6 6 6 6 7 8 8 8 8 8 8 8 9 9 9 9 9 9 9 9 9 9 9 10 10 9 9 10 9 8 7 7 8 7 6 6 6 5 5 6 7 nan
nan 12 12 13 13 12 10 10 10 10 9 9 9 8 8 7 8 9 10 11 11 9 9 11 13 13 12 10 8 8 7 6 6 6 6 6 6 6 8 9 10 10 9 8 8 7 8 7 8 9 10 10 9 8 8 8 8 7 6 6 6 6 6 6 6 5 5 6 nan
nan 11 12 12 13 13 11 10 9 9 9 9 9 9 9 8 7 8 8 9 10 9 7 8 11 14 15 14 12 10 8 6 5 6 6 6 6 6 6 8 11 11 9 8 6 5 5 6 7 8 9 10 9 8 8 8 8 8 7 6 6 6 6 7 7 7 6 7 nan
nan 10 10 10 11 11 11 10 9 9 9 10 10 10 10 9 8 7 7 8 9 9 8 7 8 10 13 14 13 11 10 8 7 7 8 7 6 5 5 6 9 10 9 8 8 7 7 6 7 8 9 8 8 8 8 8 9 9 8 8 7 7 7 7 7 8 9 9 nan
nan 10 10 9 9 9 10 10 10 10 9 10 11 10 9 9 9 8 8 8 9 9 9 8 8 9 9 10 11 10 9 9 10 9 9 9 8 6 5 5 7 8 8 9 11 10 10 8 9 7 8 7 8 8 8 8 8 9 9 9 9 9 8 7 7 8 9 9 nan
nan 10 9 9 9 9 9 9 9 9 9 10 11 10 9 9 9 9 8 9 10 9 9 9 9 10 8 9 9 8 7 8 10 11 10 10 10 8 6 6 7 7 8 10 12 10 9 9 10 8 5 6 8 9 8 8 8 8 8 8 9 9 9 7 6 6 7 8 nan
nan 10 10 9 9 9 9 9 9 9 9 10 10 10 10 10 9 8 8 8 8 8 8 8 10 10 9 9 10 9 8 8 10 10 11 11 10 9 7 6 7 7 9 10 11 9 8 9 10 9 5 5 5 8 9 9 8 8 8 8 8 8 8 8 7 7 6 7 nan
nan 10 10 9 8 8 9 9 9 9 10 11 11 11 10 10 9 8 8 8 6 6 6 7 9 8 9 9 10 10 10 9 9 10 10 10 9 9 8 7 7 8 11 11 10 9 8 9 9 10 8 4 2 6 8 9 8 8 8 8 8 8 8 8 8 7 7 8 nan
nan 11 11 9 8 8 9 9 10 10 10 11 12 11 10 9 9 9 10 10 8 7 6 8 9 8 8 8 8 9 9 9 10 10 10 9 7 7 9 8 8 10 13 13 11 9 8 7 9 10 10 4 -0 5 7 9 9 9 8 9 9 9 9 8 7 7 7 8 nan
nan 11 10 9 9 9 9 9 10 11 10 10 11 10 9 8 9 9 11 11 10 10 10 10 10 8 7 8 8 9 8 9 9 9 10 9 7 8 9 10 9 10 13 14 11 9 8 7 8 8 10 3 -0 4 7 10 9 9 10 11 10 9 9 8 8 7 7 7 nan
nan 11 10 9 9 9 9 10 11 11 11 10 9 8 8 7 8 10 11 11 12 12 11 11 10 8 7 7 7 8 8 9 8 8 8 8 8 9 10 10 10 11 13 13 11 9 8 7 7 8 10 6 3 6 8 10 8 9 10 11 11 10 9 9 8 8 7 7 nan
nan 11 10 9 9 9 10 11 11 11 11 10 9 8 8 7 7 9 10 11 12 13 12 11 11 11 10 8 8 8 9 9 9 9 9 9 9 8 9 8 10 13 14 13 11 9 8 8 7 8 12 10 5 6 10 10 8 10 11 11 11 11 10 10 10 9 9 8 nan
nan 11 10 9 9 9 10 11 11 11 10 9 9 8 7 7 7 8 9 10 11 12 12 12 13 13 12 11 11 11 10 9 10 10 11 10 10 9 7 6 9 14 15 13 11 10 9 8 7 9 11 9 3 6 9 10 10 11 12 12 11 11 11 11 11 11 10 9 nan
nan 10 9 9 10 10 11 11 11 10 9 8 8 8 7 8 8 8 9 10 10 10 11 12 12 12 11 12 12 12 11 10 10 11 11 10 10 9 7 5 8 14 14 12 11 10 10 9 9 8 7 3 2 6 8 8 9 11 11 10 9 9 9 9 11 11 11 11 nan
nan 10 9 9 10 11 11 11 11 10 9 8 8 8 7 7 9 10 11 11 10 9 9 10 11 11 10 8 9 11 12 12 11 11 11 10 9 9 8 6 9 14 15 12 11 11 11 10 10 9 5 1 2 7 8 6 7 8 8 7 6 7 8 9 10 10 10 11 nan
nan 10 9 10 11 11 12 12 11 9 8 8 8 8 9 8 8 10 12 11 10 10 9 9 10 11 11 9 8 9 11 13 12 12 11 9 8 8 8 7 9 14 16 13 11 11 11 11 10 8 5 5 8 7 7 6 7 7 7 6 7 8 8 9 9 9 10 10 nan
nan 11 10 10 11 11 12 12 11 9 9 8 8 9 9 10 10 11 12 11 10 11 10 10 10 10 11 11 10 10 12 13 12 11 11 10 9 8 8 7 8 12 16 15 12 11 11 12 9 7 3 6 10 7 6 6 8 8 7 6 7 8 9 9 10 10 11 12 nan
nan 13 11 10 11 11 12 11 10 10 9 9 9 9 8 9 9 11 13 11 10 11 11 10 10 10 12 11 10 11 12 13 13 10 9 10 10 9 7 6 7 11 15 15 12 11 11 12 10 9 2 2 6 6 7 7 7 7 7 7 8 8 9 10 11 11 11 14 nan
nan 15 13 11 11 12 12 11 10 10 10 10 10 11 9 9 9 9 10 11 10 11 11 11 11 11 12 10 9 10 10 10 12 11 10 10 12 11 6 5 8 11 16 17 13 11 11 11 11 9 0 -1 5 6 8 8 7 6 5 6 8 8 8 10 11 11 10 12 nan
nan nan nan nan nan nan nan nan nan nan nan nan nan nan nan nan nan nan nan nan nan nan nan nan nan nan nan nan nan nan nan nan nan nan nan nan nan nan nan nan nan nan nan nan nan nan nan nan nan nan nan nan nan nan nan nan nan nan nan nan nan nan nan nan nan nan nan nan nan
CAPE
nan nan nan nan 2 2 nan 0 0 0 1 0 nan nan nan nan nan nan nan 0 0 0 0 0 0 nan nan nan nan nan nan nan nan nan nan nan nan nan nan nan nan nan nan nan nan nan nan nan nan nan nan nan nan nan nan nan nan nan nan nan 0 0 0 nan nan nan nan nan nan
nan nan nan nan nan nan 0 nan nan nan 0 0 0 nan nan nan nan nan nan nan 0 0 0 0 0 nan nan nan nan nan nan nan nan nan nan nan nan nan nan nan nan nan nan nan nan nan nan nan nan nan nan nan nan nan nan nan nan nan nan nan nan 1 1 nan nan nan nan nan nan
nan nan nan 0 nan nan nan nan nan nan 0 0 0 0 0 nan nan nan nan nan 0 0 0 0 0 nan nan nan nan nan nan nan nan nan nan nan nan nan nan nan nan nan nan nan nan nan nan nan nan nan 0 nan nan nan nan nan nan nan nan nan nan nan nan 0 nan nan nan nan nan
nan nan nan 0 0 0 nan nan nan nan nan 0 0 0 0 0 nan nan nan nan 0 0 0 0 0 0 0 nan nan nan nan nan nan nan nan nan nan nan nan nan nan nan nan nan nan nan nan nan nan nan nan nan nan nan nan nan nan nan nan nan nan nan nan nan 0 0 nan nan nan
nan nan nan 0 nan nan nan nan nan nan nan nan 0 0 0 0 0 nan nan nan nan 0 0 0 0 nan nan nan nan nan nan nan 0 nan nan nan nan nan nan nan nan nan nan nan nan nan nan nan nan nan nan nan nan nan nan nan nan nan nan nan nan nan nan nan nan nan nan nan nan
nan nan nan nan nan nan nan nan nan nan nan nan nan 0 0 nan 0 nan nan nan nan nan nan 0 nan nan nan nan nan nan nan nan nan nan nan nan nan nan nan nan nan nan nan nan nan nan nan nan nan nan nan nan nan nan nan nan nan nan nan nan nan nan nan nan nan nan nan nan nan
nan nan nan nan nan nan nan nan nan nan 0 0 nan nan nan nan nan nan nan nan nan nan nan 0 nan nan nan nan nan nan nan nan nan nan nan nan nan nan nan nan nan nan nan nan nan nan nan nan nan nan nan 0 nan nan nan nan nan nan nan nan nan nan nan nan nan nan nan nan nan
nan nan nan nan nan nan 0 nan 0 0 0 nan nan nan nan nan nan nan nan nan nan nan nan nan nan nan nan nan nan nan nan nan nan nan nan nan nan nan nan nan nan nan nan nan nan nan nan nan nan nan nan nan nan nan nan nan nan nan nan nan nan nan nan nan nan nan nan nan nan
nan nan nan nan 0 0 0 0 0 0 nan nan nan nan nan nan nan nan nan nan nan 0 0 nan nan nan nan nan nan nan nan nan nan nan nan nan nan nan nan nan nan nan nan nan nan nan nan nan nan nan 0 nan nan nan nan nan nan nan nan nan nan nan nan nan nan nan nan nan nan
nan nan nan nan nan nan nan 0 1 1 0 nan nan nan nan nan nan nan nan nan nan nan nan nan nan nan nan nan nan nan nan nan nan nan nan nan nan nan nan nan nan nan nan nan nan nan nan nan nan nan nan nan nan nan nan nan nan nan nan nan nan nan nan nan nan nan nan nan nan
nan nan nan nan nan nan nan 0 0 0 0 nan nan nan nan nan nan nan nan nan nan nan nan nan nan nan nan nan nan nan nan nan nan nan nan nan nan nan nan nan nan nan nan nan nan nan nan nan nan nan nan nan nan nan nan nan nan nan nan nan nan nan nan nan nan nan nan nan nan
nan nan nan nan nan nan nan nan 0 0 nan nan nan nan nan nan nan nan nan nan nan nan nan nan nan nan nan nan nan nan nan nan nan nan nan nan nan nan nan nan nan nan nan nan nan nan nan nan nan nan nan nan nan nan nan nan nan nan nan nan nan nan nan nan nan nan nan nan nan
nan nan nan nan nan nan nan nan 0 0 nan nan nan nan nan nan nan nan nan nan nan nan nan 0 nan nan nan nan nan nan nan nan nan nan nan nan nan nan nan nan nan nan nan nan nan nan nan nan nan nan nan nan nan nan nan nan nan nan nan nan nan nan nan nan nan nan nan nan nan
nan nan nan nan nan nan nan nan nan nan 0 nan nan nan nan nan nan nan nan nan nan nan nan nan nan nan nan nan nan nan nan nan nan nan nan nan nan nan nan nan nan nan nan nan nan nan nan nan nan nan nan nan nan nan nan nan nan nan nan nan nan nan nan nan nan nan nan nan nan
nan nan nan nan nan nan nan nan nan nan nan 0 nan nan nan nan nan nan nan nan nan nan nan nan nan nan nan nan nan nan nan nan nan nan nan nan nan nan nan nan nan nan nan nan nan nan nan nan nan nan nan nan nan nan nan nan nan nan nan nan nan nan nan nan nan nan nan nan nan
nan nan nan nan nan nan nan nan nan nan nan nan nan nan nan nan nan nan nan nan nan nan nan nan nan nan nan nan nan nan nan nan nan nan nan nan nan nan nan nan nan nan nan nan 0 0 nan nan nan nan nan nan nan nan nan nan nan nan nan nan nan nan nan nan nan nan nan nan nan
nan nan nan nan nan nan nan nan nan nan nan nan nan nan nan nan nan nan nan nan nan nan nan nan nan nan nan nan nan nan nan nan nan nan nan nan nan nan nan nan nan nan nan nan 0 0 nan nan nan nan nan nan nan nan nan nan nan nan nan nan nan nan nan nan nan nan nan nan nan
nan nan nan nan nan nan nan nan nan nan nan nan nan nan nan nan nan nan nan nan nan nan nan nan nan nan nan nan nan nan nan nan nan nan nan nan nan nan nan 0 nan nan nan nan 0 0 nan nan nan nan nan nan nan nan nan nan nan nan nan nan nan nan nan nan nan nan nan nan nan
nan nan nan nan nan nan nan nan nan nan nan nan nan nan nan nan nan nan nan nan nan nan nan nan nan nan nan nan nan nan nan nan nan nan nan nan nan nan nan nan nan nan nan nan nan nan nan nan nan nan nan nan nan nan nan nan nan nan nan nan nan nan nan nan nan nan nan nan nan
nan nan nan nan nan nan nan nan nan nan nan nan nan nan nan nan nan nan nan nan nan nan nan nan nan nan nan nan nan nan nan nan nan nan nan nan nan nan nan nan nan nan nan nan nan nan nan nan nan nan nan nan nan nan nan nan nan nan nan nan nan nan nan nan nan nan nan nan nan
nan nan nan nan nan nan nan nan nan nan nan nan nan nan nan nan nan nan nan nan nan nan nan nan nan nan nan nan nan nan nan nan nan nan nan nan nan nan nan nan nan nan nan nan nan nan nan nan nan nan nan nan nan nan nan nan nan nan nan nan nan nan nan nan nan nan nan nan nan
nan nan nan nan nan nan nan nan nan nan nan nan nan nan nan nan nan nan nan nan nan nan nan nan nan nan nan nan nan nan nan nan nan nan nan nan nan nan nan nan nan nan nan nan nan nan nan nan nan nan nan nan nan nan nan nan nan nan nan nan nan nan nan nan nan nan nan nan nan
nan nan nan nan nan nan nan nan nan nan nan nan nan nan nan nan nan nan nan nan nan nan nan nan nan nan nan nan nan nan nan nan nan nan nan nan nan nan nan nan nan nan nan nan nan nan nan nan nan nan nan nan nan nan nan nan nan nan nan nan nan nan nan nan nan nan nan nan nan
nan nan nan nan nan nan nan nan nan nan nan nan nan nan nan nan nan nan nan nan nan nan nan nan nan nan nan nan nan nan nan nan nan nan nan nan nan nan nan nan nan nan nan nan nan nan nan nan nan nan nan nan nan nan nan nan nan nan nan nan nan nan nan nan nan nan nan nan nan
nan nan nan nan nan nan nan nan nan nan nan nan nan nan nan nan nan nan nan nan nan nan nan nan nan nan nan nan nan nan nan nan nan nan nan nan nan nan nan nan nan nan nan nan 2 2 8 3 nan nan nan nan nan nan nan nan nan nan nan nan nan nan nan nan nan nan nan nan nan
nan nan nan nan nan nan nan nan nan nan nan nan nan nan nan nan nan nan nan nan nan nan nan nan nan nan nan nan nan nan nan nan nan nan nan nan nan nan nan nan nan nan nan 0 3 3 7 8 3 3 nan nan nan nan nan nan nan nan nan nan nan nan nan nan nan nan nan nan nan
nan nan nan nan nan nan nan nan nan nan nan nan nan nan nan nan nan nan nan nan nan nan nan nan nan 0 0 nan nan nan nan nan nan nan nan nan nan nan nan nan nan nan nan 0 5 5 7 7 9 9 0 nan nan nan nan nan nan nan nan nan 0 nan nan nan nan nan nan nan nan
nan nan nan nan nan nan nan nan nan nan nan nan nan nan nan nan nan nan nan nan nan nan nan nan nan nan nan nan nan nan nan nan nan nan nan nan nan nan nan nan nan nan nan 1 5 5 7 8 8 8 3 nan nan nan nan nan nan nan nan 0 0 nan nan nan nan nan nan nan nan
nan nan nan nan nan nan nan nan nan nan nan nan nan nan nan nan nan nan nan nan nan nan nan nan nan nan nan nan nan nan nan nan nan nan nan nan nan nan nan nan nan nan nan 2 8 8 6 6 7 7 11 1 nan nan nan nan nan nan nan 0 nan nan nan nan nan nan nan nan nan
nan nan nan nan nan nan nan nan nan nan nan nan nan nan nan nan nan nan nan nan nan nan nan nan nan nan nan nan nan nan nan nan nan nan nan nan nan nan nan nan nan 0 0 1 8 8 6 5 7 7 10 1 0 nan nan nan nan nan nan nan nan nan nan nan nan nan nan nan nan
nan nan nan nan nan nan nan nan nan nan nan nan nan nan nan nan nan nan nan nan nan nan nan nan nan nan nan nan nan nan nan nan nan nan nan nan nan nan nan nan nan 0 0 1 9 9 6 4 6 6 8 11 0 nan nan nan nan nan nan nan nan nan nan nan nan nan nan nan nan
nan nan nan nan nan nan nan nan nan nan nan nan nan nan nan nan nan nan nan nan nan nan nan nan nan nan nan nan nan nan nan nan nan nan nan nan nan nan nan nan nan nan nan 1 9 9 6 5 7 7 8 15 0 nan nan nan nan nan nan nan nan nan nan nan nan nan nan nan nan
nan nan nan nan nan nan nan nan nan nan nan nan nan nan nan nan nan nan nan nan nan nan nan nan nan nan nan nan nan nan nan nan nan nan nan nan nan nan nan nan nan nan nan 1 8 8 7 5 7 7 8 16 nan nan nan nan nan nan nan nan nan nan nan nan nan nan nan nan nan
nan nan nan nan nan nan nan nan nan nan nan nan nan nan nan nan nan nan nan nan nan nan nan nan nan nan nan nan nan nan nan nan nan nan nan nan nan nan nan nan nan nan nan 1 6 6 6 5 6 6 8 13 nan nan nan nan nan nan nan nan nan nan nan nan nan nan nan nan nan
nan nan nan nan nan nan nan nan nan nan nan nan nan nan nan nan nan nan nan nan nan nan nan nan nan nan nan nan nan nan nan nan nan nan nan nan nan nan nan nan nan nan nan 0 3 3 4 5 6 6 10 nan nan nan nan nan nan nan nan nan nan nan nan nan nan nan nan nan nan
nan nan nan nan nan nan nan nan nan nan nan nan nan nan nan nan nan nan nan nan nan nan nan nan nan nan nan nan nan nan nan nan nan nan nan nan nan nan nan nan nan nan nan nan 0 0 3 3 6 6 12 nan nan nan nan nan nan nan nan nan nan nan nan nan nan nan nan nan nan
nan nan nan nan nan nan nan nan nan nan nan nan nan nan nan nan nan nan nan nan nan nan nan nan nan nan nan nan nan nan nan nan nan nan nan nan nan nan nan nan nan nan nan nan 0 0 1 3 5 5 9 nan nan nan nan nan nan nan nan nan nan nan nan nan nan nan nan nan nan
nan nan nan nan nan nan nan nan nan nan nan nan nan nan nan nan nan nan nan nan nan nan nan nan nan nan nan nan nan nan nan nan nan nan nan nan nan nan nan nan nan nan nan nan nan nan 0 1 5 5 2 nan nan nan nan nan nan nan nan nan nan nan nan nan nan nan nan nan nan
nan nan nan nan nan nan nan nan nan nan nan nan nan nan nan nan nan nan nan nan nan nan nan nan nan nan nan nan nan nan nan nan nan nan nan nan nan nan nan nan nan nan nan nan nan nan 0 1 5 5 3 nan nan nan nan nan nan nan nan nan nan nan nan nan nan nan nan nan 1
nan nan nan nan nan nan nan nan nan nan nan nan nan nan nan nan nan nan nan nan nan nan nan nan nan nan nan nan nan nan nan nan nan nan nan nan nan nan nan nan nan nan nan nan nan nan nan 0 3 3 7 nan nan nan nan nan nan nan nan nan nan nan nan nan nan nan nan nan 3
nan nan nan nan nan nan nan nan nan nan nan nan nan nan nan nan nan nan nan nan nan nan nan nan nan nan nan nan nan nan nan nan nan nan nan nan nan nan nan nan nan nan nan nan nan nan nan 0 2 2 9 nan nan nan nan nan nan nan nan nan nan nan nan nan nan nan nan nan nan